Regional Weather Roundup
Issued by NWS Wilmington, NC

Home | Current Version | Previous Version | Text Only | Print | Product List | Glossary On
Versions: 1 2 3 4 5 6 7 8 9 10 11 12 13 14 15 16 17 18 19 20 21 22 23 24 25 26 27 28 29 30 31 32 33 34 35 36 37 38 39 40 41 42 43 44 45 46 47 48 49 50
000
ASUS42 KILM 241510
RWRILM
RWRILM
REGIONAL HOURLY WEATHER ROUNDUP
NATIONAL WEATHER SERVICE WILMINGTON NC
1000 AM EST MON NOV 24 2014

NOTE: "FAIR" INDICATES FEW OR NO CLOUDS BELOW 12,000 FEET WITH NO
SIGNIFICANT WEATHER AND/OR OBSTRUCTIONS TO VISIBILITY.

...............WFO WILMINGTON COUNTY WARNING AREA...............

......COASTAL NC AND SC COUNTIES......

CITY           SKY/WX    TMP DP  RH WIND       PRES   REMARKS
WILMINGTON     CLOUDY    70  69  97 SW7       29.89F
SOUTHPORT      CLOUDY    65  64  96 SW7       29.91S FOG
N MYRTLE BEACH CLOUDY    68  67  96 SW15      29.89S FOG
MYRTLE BEACH   CLOUDY    70  66  88 SW12      29.89S FOG

......INLAND NC AND SC COUNTIES.......

CITY           SKY/WX    TMP DP  RH WIND       PRES   REMARKS
LUMBERTON      CLOUDY    70  66  87 S8        29.87R
ELIZABETHTOWN  CLOUDY    68  68  99 S5        29.88R
WHITEVILLE     CLOUDY    68  66  94 SW8       29.89R FOG
FLORENCE       CLOUDY    69  66  90 S9        29.87R
DARLINGTON     CLOUDY    68  64  88 S13       29.86S

....................REST OF NORTH CAROLINA......................

.........EASTERN NC.........

CITY           SKY/WX    TMP DP  RH WIND       PRES   REMARKS
CAPE HATTERAS  CLOUDY    68  67  96 SW10      29.92R FOG
JACKSONVILLE   CLOUDY    66  64  94 S8        29.90S
MOREHEAD CITY  CLOUDY    66  66 100 SW7       29.92S FOG
KENANSVILLE    CLOUDY    67  66  94 CALM      29.89S
NEW BERN       CLOUDY    70  67  90 SW7       29.90S
ELIZABETH CITY CLOUDY    71  65  81 S13G18    29.86S

.........CENTRAL NC.........

CITY           SKY/WX    TMP DP  RH WIND       PRES   REMARKS
RALEIGH DURHAM PTSUNNY   64  56  75 SW16G26   29.85R
ROCKY MOUNT    MOSUNNY   69  62  78 SW9       29.85S
ROANOKE RAPIDS NOT AVBL
FAYETTEVILLE   CLOUDY    67  66  97 S7        29.87R
HOFFMAN        PTSUNNY   65  63  91 S7        29.86F

.........WESTERN NC.........

CITY           SKY/WX    TMP DP  RH WIND       PRES   REMARKS
CHARLOTTE      CLOUDY    64  56  75 SW14G22   29.82R
GREENSBORO     MOSUNNY   64  56  75 SW18G28   29.78S
HICKORY        NOT AVBL
BOONE          NOT AVBL
ASHEVILLE      NOT AVBL

.....................REST OF SOUTH CAROLINA.....................

.........EASTERN SC.........

CITY           SKY/WX    TMP DP  RH WIND       PRES   REMARKS
CHARLESTON     CLOUDY    71  69  93 SW16G23   29.91R
BEAUFORT MCAS  CLOUDY    66  64  93 S7        29.89R FOG
HILTON HEAD    FOG       68  68 100 S10G17    29.91R VSB 1

.........CENTRAL SC.........

CITY           SKY/WX    TMP DP  RH WIND       PRES   REMARKS
COLUMBIA       CLOUDY    69  65  86 SW12      29.86R
ORANGEBURG     RAIN      68  66  93 SW3       29.87S FOG
SUMTER SHAW    CLOUDY    68  66  94 S12       29.85R

.........WESTERN SC.........

CITY           SKY/WX    TMP DP  RH WIND       PRES   REMARKS
GREENVILLE     NOT AVBL
ROCK HILL      CLOUDY    65  60  84 SW13      29.82S
ANDERSON       PTSUNNY   63  60  90 SW12      29.82S
CLEMSON        NOT AVBL
GREENWOOD      PTSUNNY   68  62  81 SW15G24   29.85R


...................COASTAL AND OFFSHORE REPORTS..................

................LOCAL PIERS AND NC RESERVE................


STATION/POSITION TIME  SKY/WX   TEMP    WIND        PRES    VSBY
                                AIR SEA DIR/SP/G
                 (UTC)          (F)     (DEG/KT/KT) (MB)    (MI)
JOHNY MRCER PIER 1500            70 61  220/ 14/ 17 1011.7S
NC RESRV MASNBRO 1400            69     230/  5     1013.0R
OCEAN CREST PIER 1500            62 58  220/  5/  5 1011.9R
SPRINGMAID  PIER 1500            60 56  200/ 10/ 11 1012.4R


................COASTAL AND OFFSHORE BUOYS................


STATION/POSITION TIME  SKY/WX   TEMP    WIND        PRES    VSBY
                                AIR SEA DIR/SP/G
                 (UTC)          (F)     (DEG/KT/KT) (MB)    (MI)
DIMNDSHOAL 41025 1500            76     180/ 19/ 25 1012.8R
WVE H/P(F/S)= 10/10 WND WVE H/P(F/S)=  7/ 5 SWL H/P/D(F/S/D)=  8/160/10

CAPE LOOKOUT     1400            66     190/ 10/ 11 1012.8R
ONSLOW BAY 41036 1500            72 70  230/ 14/ 17 1013.3R
WVE H/P(F/S)=  9/10 WND WVE H/P(F/S)=  5/ 6 SWL H/P/D(F/S/D)=  7/140/10

5 WRITEBCH 41038 1400            62 60  210/ 10/ 12 1012.5R
MASONBORO  41110 1500               60                N/A
WVE H/P(F/S)=  7/11 WND WVE H/P(F/S)=  7/10 SWL H/P/D(F/S/D)=  3/120/11

WILM HARBR 41108 1500               62                N/A
WVE H/P(F/S)=  7/10 WND WVE H/P(F/S)=  7/10 SWL H/P/D(F/S/D)=  3/130/11

27WRITEBCH 41037 1400            66 66  230/ 14/ 16 1013.3R
FRYING PAN 41013 1500            74 68  220/ 19/ 25 1013.1S
WVE H/P(F/S)= 10/10 WND WVE H/P(F/S)=  5/ 5 SWL H/P/D(F/S/D)=  8/140/10

SUNST NRSH 41024 NOT AVBL
CAPRS NRSH 41029 1400            64     240/  8/ 10   N/A
EDISTO     41004 1500            76 75  210/ 19/ 25 1012.1R
WVE H/P(F/S)= 10/10 WND WVE H/P(F/S)=  7/ 7 SWL H/P/D(F/S/D)=  7/10



..........OFFSHORE BUOYS BEYOND 100 NM OFFSHORE...........
.....IN A TRIANGLE---HAT TO BERMUDA TO BAHAMAS TO HAT.....


STATION/POSITION TIME  SKY/WX   TEMP    WIND        PRES    VSBY
                                AIR SEA DIR/SP/G
                 (UTC)          (F)     (DEG/KT/KT) (MB)    (MI)
150E HAT   41001 NOT AVBL
W BERMUDA  41048 1400            75 75  150/ 21/ 25 1022.1
WVE H/P(F/S)=  8/ 7 WND WVE H/P(F/S)=  8/ 7

ATLANTIC S 41049 1430            79 79   90/ 17/ 19 1024.9F
WVE H/P(F/S)=  7/10 WND WVE H/P(F/S)=  5/ 8 SWL H/P/D(F/S/D)=  5/ 40/10

E BAHAMAS  41046 1411            81 81  110/ 17/ 21 1020.4F
WVE H/P(F/S)=  9/ 8 WND WVE H/P(F/S)=  8/ 8

NE BAHAMAS 41047 1354            78 78  150/ 16/ 17 1021.1
WVE H/P(F/S)=  9/ 8 WND WVE H/P(F/S)=  5/ 6 SWL H/P/D(F/S/D)=  7/110/ 8

120E CANVRL41010 1500            79 78  180/ 16/ 19 1016.7R
WVE H/P(F/S)=  9/10 WND WVE H/P(F/S)=  5/ 6 SWL H/P/D(F/S/D)=  7/130/10


END


USA.gov is the U.S. government's official web portal to all federal, state and local government web resources and services.